Probability
0 0 1 2 2 3 3 4 8 11 10 7 5 4 6 7 8 7 7 6 4 3 2 2 1 0 0 0 0 0 0 0 0 0 0 0 0 0 0 0 0 2 3
1 1 3 4 3 3 3 4 6 9 9 7 5 5 6 7 8 8 6 5 4 3 2 1 1 1 1 1 0 0 0 1 1 1 1 0 0 0 0 0 1 2 4
3 4 5 5 5 4 4 4 5 6 7 6 6 7 8 9 9 8 6 4 4 3 3 2 2 2 2 2 1 1 1 2 2 2 2 1 0 0 0 0 1 2 3
5 6 6 6 6 7 6 6 5 5 5 6 7 7 9 10 9 8 6 4 4 3 3 3 3 3 3 3 3 2 3 3 3 3 3 2 1 0 0 0 0 1 1
5 5 4 5 7 7 7 6 5 5 5 6 7 6 7 8 9 8 7 5 4 3 3 3 3 3 3 3 3 3 3 3 3 3 3 2 1 1 1 0 0 0 0
4 3 3 5 7 7 6 5 5 5 6 7 7 6 6 7 8 8 7 6 5 4 3 3 3 3 3 2 2 3 3 3 3 3 3 3 2 2 2 1 0 0 0
6 5 5 6 8 8 7 6 5 4 5 5 6 6 6 6 7 7 6 6 6 4 2 2 2 2 1 1 1 1 2 3 3 3 3 3 3 3 3 1 0 0 0
7 7 7 8 10 10 9 8 7 7 6 4 3 4 4 4 5 5 4 5 6 5 3 1 1 1 0 0 0 1 2 3 3 3 3 3 3 3 3 2 1 1 0
6 6 8 9 10 12 11 10 10 10 9 5 3 4 4 3 3 3 4 4 6 7 4 3 2 1 0 0 0 1 2 2 3 3 3 3 3 2 2 2 2 1 1
4 5 7 9 11 11 11 12 12 12 10 7 6 7 7 5 4 4 4 4 5 6 5 4 3 2 1 1 0 1 1 1 2 2 2 2 1 1 1 1 1 1 0
5 5 6 8 10 10 9 11 12 12 11 10 10 11 10 8 6 4 4 4 5 5 4 3 3 3 3 2 1 0 0 0 1 1 1 1 0 0 0 0 0 0 0
5 5 4 5 7 8 8 9 10 11 11 10 11 12 11 9 6 4 4 4 5 5 4 3 3 3 3 3 2 1 1 1 0 0 0 0 0 0 0 0 0 0 0
4 4 3 3 4 6 7 9 9 10 9 9 9 11 10 7 5 4 5 5 6 6 5 4 3 3 3 3 3 3 2 2 2 1 0 1 1 1 0 0 0 0 0
3 3 3 3 3 5 7 9 10 10 10 9 9 9 8 5 4 4 4 5 6 6 5 4 3 3 3 3 3 3 3 4 4 3 1 1 1 1 0 0 0 0 0
2 2 2 2 3 5 7 9 11 12 11 10 8 8 6 4 4 5 5 5 6 5 4 3 3 3 3 3 3 3 3 4 5 5 2 0 0 0 0 0 0 0 0
1 1 1 1 2 4 6 8 10 12 11 9 7 6 5 4 5 7 7 6 5 3 2 3 3 3 3 3 3 3 3 4 6 5 3 1 0 0 0 0 0 0 0
0 0 0 0 1 3 4 5 7 9 10 8 6 5 4 3 4 6 8 8 6 2 1 2 3 3 3 2 1 1 2 4 6 6 4 1 0 0 0 0 0 0 0
0 0 0 0 1 2 3 3 5 7 8 7 5 4 3 2 2 4 7 7 6 3 1 1 1 3 3 1 0 0 1 3 6 6 4 1 0 0 0 0 0 0 0
0 0 0 0 1 2 3 3 4 6 6 5 4 4 3 2 1 2 4 5 4 3 1 1 1 2 2 1 0 0 1 3 5 5 3 1 0 0 0 1 1 1 1
0 0 0 0 0 1 3 3 4 5 4 3 3 4 3 2 0 1 2 3 3 3 3 2 3 3 2 1 0 0 1 3 5 4 3 1 0 0 0 1 2 3 2
1 0 0 0 0 1 3 3 3 4 4 4 4 4 4 2 1 0 1 1 2 3 3 3 3 3 3 2 1 0 1 4 5 4 3 1 0 0 0 1 2 2 2
2 1 0 0 0 2 3 3 3 4 5 5 5 5 4 3 1 1 1 0 1 2 2 2 3 4 4 3 1 0 1 3 5 6 4 1 0 0 0 0 1 1 1
2 1 0 0 0 1 2 2 3 4 6 6 5 4 3 3 3 3 2 1 1 2 3 3 3 4 5 3 1 0 0 1 4 5 3 1 0 0 0 0 0 0 0
1 0 0 0 0 0 1 1 1 3 5 5 4 3 2 2 3 3 4 3 3 4 4 5 4 5 5 3 2 1 0 1 3 3 1 0 0 0 0 0 0 0 0
0 0 0 0 0 0 0 0 0 1 3 4 3 1 0 1 1 3 3 3 3 3 4 4 4 4 4 2 1 1 0 1 1 1 0 0 0 0 0 0 0 0 0
0 0 0 0 0 0 0 0 0 1 2 3 2 1 0 0 1 2 3 2 1 1 1 2 2 2 2 1 1 0 0 0 1 0 0 0 0 0 0 0 0 0 0
Wind_Speed
4 3 3 4 4 4 4 4 4 4 4 3 3 2 2 1 1 1 1 1 2 2 2 2 2 2 2 1 2 2 2 1 1 2 2 2 2 1 1 1 1 2 1
2 3 4 4 4 5 4 4 4 4 4 3 3 2 2 2 1 1 1 1 2 2 3 3 2 2 2 2 1 2 1 1 1 1 1 2 3 2 2 1 1 2 2
5 4 4 4 4 5 5 5 4 4 4 4 3 3 2 2 2 1 1 0 1 2 2 3 2 2 2 2 1 2 2 1 0 1 2 2 1 2 2 2 1 2 2
4 4 4 4 4 4 4 4 3 3 4 5 5 4 3 2 2 2 1 1 1 1 2 2 3 2 2 2 2 2 1 2 1 0 1 1 2 1 2 2 2 2 2
3 4 3 4 3 4 4 4 3 3 3 4 5 4 3 2 1 1 2 1 0 1 1 2 2 2 2 2 2 2 2 2 2 1 1 1 1 1 1 2 3 2 2
2 2 2 2 2 3 3 3 4 3 3 4 4 4 4 3 3 2 2 1 0 0 0 1 2 2 2 2 2 2 2 2 2 1 1 2 2 2 2 2 2 2 2
3 2 2 2 3 3 3 3 3 2 3 3 4 5 5 5 5 4 3 2 1 1 1 1 1 1 2 2 2 2 2 2 2 2 1 2 2 2 2 1 1 2 2
1 2 2 2 3 3 3 3 3 2 2 3 3 3 4 3 2 3 3 3 3 2 2 2 2 2 2 2 2 1 2 2 2 2 2 2 2 2 2 2 2 1 1
0 1 1 1 2 3 4 4 5 4 4 4 4 3 4 4 3 3 3 3 2 2 2 2 2 2 2 2 2 2 2 2 2 2 2 2 2 2 2 2 2 2 1
1 0 1 1 2 3 3 3 5 5 4 4 3 3 4 4 4 3 3 3 3 2 3 2 2 2 2 2 2 2 2 2 2 2 2 2 1 2 2 2 1 2 2
1 1 0 0 0 1 2 2 2 2 3 3 2 2 2 3 3 3 3 3 3 3 3 3 2 2 2 2 2 2 2 2 2 2 2 3 2 2 1 2 2 2 2
1 1 1 1 1 0 1 1 2 2 2 2 2 2 1 2 2 3 3 3 3 3 3 3 3 3 3 3 3 3 3 3 3 3 3 3 2 2 2 2 2 2 2
2 2 1 1 1 1 1 1 1 1 1 1 1 1 1 1 2 3 3 3 3 3 2 3 3 3 3 3 4 4 4 4 4 4 4 3 3 3 2 2 2 2 2
1 1 2 2 1 1 1 1 0 0 1 1 1 1 1 2 2 2 2 3 3 3 3 3 3 3 3 4 4 3 3 3 3 4 4 4 4 4 4 3 3 2 2
2 2 2 2 1 1 1 1 1 1 1 1 1 1 1 1 1 1 1 2 2 3 3 3 3 3 3 3 4 4 4 3 3 3 3 4 4 5 4 3 3 3 2
2 3 2 2 2 2 2 1 1 1 1 2 2 1 1 1 1 1 2 2 2 2 2 3 3 3 3 4 5 3 3 3 4 3 3 3 4 4 4 4 4 5 4
3 3 3 3 3 3 2 2 3 2 2 2 2 2 2 2 2 2 2 2 2 2 2 2 3 3 3 4 5 5 3 3 3 3 3 3 2 2 2 3 3 4 5
3 3 3 3 3 2 2 2 2 2 3 3 2 2 2 3 3 2 2 3 2 2 3 3 3 3 4 5 5 5 4 4 4 4 4 3 3 2 2 2 2 3 3
3 3 3 4 3 3 3 2 2 2 3 3 3 4 3 3 3 3 3 3 3 3 3 3 4 4 4 4 4 4 3 3 4 3 3 3 3 3 3 2 3 3 3
3 3 3 3 2 2 2 2 3 3 4 5 5 4 3 3 3 4 4 3 3 3 3 3 3 4 4 4 4 4 3 3 3 2 2 4 4 4 4 3 3 3 3
3 3 3 3 3 2 1 2 3 5 5 4 3 3 3 4 4 3 3 2 2 2 3 3 3 3 4 4 5 5 3 3 3 2 2 3 4 5 5 4 4 4 3
3 2 2 3 3 2 1 3 5 5 3 3 3 3 3 3 3 3 3 2 2 2 3 3 3 2 3 4 5 6 5 4 3 3 3 3 3 4 4 3 2 2 1
3 2 2 3 3 3 2 4 5 4 2 2 3 3 3 3 3 3 3 2 2 2 3 3 3 3 2 2 4 5 5 5 3 3 4 3 3 3 2 2 2 2 1
3 2 2 3 4 4 3 4 4 3 2 3 3 3 2 2 2 2 2 2 3 3 3 3 3 3 3 2 2 2 3 4 3 2 2 2 2 2 1 1 1 1 1
3 2 2 3 5 5 4 4 3 3 3 3 3 2 2 2 2 2 3 3 4 5 5 4 4 4 4 4 4 3 3 3 3 2 1 1 1 1 1 1 0 0 1
3 3 3 4 5 5 5 4 3 2 3 2 2 2 2 2 2 2 2 2 3 4 5 5 4 4 5 4 4 4 4 4 5 4 2 2 2 2 2 2 1 1 1
Wind_Direction
212 190 181 172 154 148 147 157 152 153 143 140 145 140 147 139 100 100 117 122 126 133 135 129 133 120 120 133 123 106 88 65 61 69 18 0 4 357 347 352 359 352 336
185 190 181 170 167 168 167 165 167 162 160 160 156 146 137 127 130 116 109 123 128 150 160 151 143 136 131 121 118 116 111 99 76 104 82 359 348 344 351 355 351 335 333
195 195 184 182 171 172 175 172 174 163 157 143 120 101 79 76 81 86 107 139 144 160 157 157 146 149 150 161 165 149 145 162 135 90 129 140 245 310 327 337 348 340 333
191 181 174 176 180 181 170 163 164 158 150 143 143 144 146 155 171 171 167 137 120 146 152 148 155 156 153 164 181 155 163 151 165 127 90 151 158 175 315 327 334 331 320
182 182 184 181 172 166 160 154 146 148 145 145 148 143 138 147 127 126 125 103 70 152 158 155 154 162 165 173 172 152 162 165 164 160 153 137 99 143 187 293 322 331 319
185 180 155 140 138 136 145 144 145 157 155 156 155 158 152 154 145 139 147 143 123 231 210 169 171 176 173 181 188 178 169 171 166 163 156 158 167 183 183 230 279 298 308
181 167 150 154 150 143 148 151 151 171 174 169 168 170 167 177 178 170 170 156 155 207 243 216 202 197 201 196 180 175 183 185 178 179 184 191 200 171 170 190 245 282 305
172 165 168 169 165 162 163 167 178 179 178 183 188 180 171 172 183 179 172 176 190 202 204 213 214 211 203 197 177 178 195 183 191 201 196 202 212 194 183 180 178 275 310
191 173 161 153 170 169 182 186 186 183 185 201 198 184 175 177 187 186 178 185 194 191 189 207 213 218 203 193 177 186 207 193 204 214 212 211 212 203 201 188 179 172 248
316 253 167 168 186 181 189 196 197 196 193 200 196 192 192 191 189 182 190 192 193 190 184 200 205 214 207 191 181 197 208 198 222 221 220 225 212 203 193 188 187 182 192
247 269 303 290 202 162 182 201 202 203 202 202 195 194 202 191 185 193 203 202 202 193 191 198 201 212 213 203 198 211 206 208 228 227 217 234 216 199 197 182 176 188 187
4 355 360 40 52 135 178 195 195 194 203 195 182 193 187 176 193 208 214 207 207 203 198 195 200 211 212 210 211 223 220 216 224 229 221 234 226 213 202 192 198 202 199
17 14 358 331 260 226 185 197 204 196 147 126 143 151 164 185 206 221 224 217 211 205 200 202 214 220 216 215 220 221 223 225 228 225 222 229 219 227 214 206 211 213 202
346 337 322 305 287 261 195 160 94 75 113 127 150 167 210 224 228 224 227 215 201 204 210 211 217 222 223 225 224 218 222 230 235 230 226 227 222 225 214 210 215 208 200
334 314 303 300 301 311 304 160 162 163 156 140 179 226 236 246 249 235 243 224 202 215 209 207 216 223 222 232 230 221 220 225 238 243 242 238 231 225 212 210 208 201 206
313 314 307 297 281 263 264 246 212 201 180 190 219 228 223 253 263 247 244 234 224 222 207 212 220 227 240 242 233 220 224 228 229 240 255 253 233 230 225 225 211 197 201
304 305 299 284 273 268 251 234 237 219 210 219 225 210 208 216 242 244 238 238 240 231 228 234 232 241 252 242 236 226 218 228 232 233 243 259 262 237 235 237 229 224 226
287 291 291 280 272 265 265 260 259 222 214 216 219 224 217 225 233 235 246 246 242 233 233 236 233 241 253 244 236 226 229 234 236 233 231 239 253 251 234 236 243 247 244
270 266 267 268 266 247 238 235 252 239 224 225 227 230 225 227 227 235 251 249 238 240 242 240 230 237 254 250 238 225 229 240 248 246 236 234 243 239 210 207 233 252 265
299 290 283 284 285 271 232 216 244 238 238 236 233 231 224 221 229 238 246 250 237 239 237 245 239 234 243 245 229 211 214 227 240 255 256 245 245 234 205 209 218 239 257
298 300 296 290 282 276 221 241 256 251 249 248 238 230 229 230 230 232 237 251 245 240 243 247 253 246 243 243 229 214 209 211 222 242 258 259 252 233 218 214 218 231 239
312 309 304 295 296 287 247 259 264 262 258 241 239 237 235 240 240 230 237 238 228 234 248 243 253 255 250 241 233 226 225 213 213 233 248 256 250 234 221 215 221 215 170
297 298 291 298 301 287 251 255 268 268 254 245 247 241 238 245 241 232 239 241 218 227 244 235 243 259 261 251 240 235 237 228 218 229 237 248 237 216 207 198 173 157 148
301 297 303 302 301 294 278 264 270 262 238 241 250 246 242 253 252 242 232 231 220 222 232 231 238 253 259 250 240 235 232 226 223 224 214 193 169 151 146 139 139 151 178
295 289 281 284 290 296 291 285 271 247 242 244 245 244 243 251 265 266 247 235 227 217 222 230 222 224 248 257 240 222 223 216 206 172 153 136 140 141 139 150 162 170 166
297 290 285 282 288 296 296 298 292 254 234 242 245 246 246 247 251 262 283 279 252 250 239 234 228 238 242 254 251 237 225 211 182 162 172 179 184 190 192 193 215 222 209